Regional Weather Roundup
Issued by NWS

Home | Current Version | Previous Version | Text Only | Print | Product List | Glossary Off
Versions: 1 2 3 4 5 6 7 8 9 10 11 12 13 14 15 16 17 18 19 20 21 22 23 24 25 26 27 28 29 30 31 32 33 34 35 36 37 38 39 40 41 42 43 44 45 46 47 48 49 50

000
ASUS45 KBOI 201010
RWRID
WEATHER ROUNDUP FOR IDAHO
NATIONAL WEATHER SERVICE BOISE ID
400 AM MDT SAT SEP 20 2014

NOTE: "FAIR" INDICATES FEW OR NO CLOUDS BELOW 12000 FEET
WITH NO SIGNIFICANT WEATHER AND/OR OBSTRUCTIONS TO VISIBILITY

IDZ012-014-201100-
SOUTHWEST IDAHO


CITY           SKY/WX    TMP DP  RH WIND       PRES   REMARKS
BOISE          CLEAR     59  45  59 CALM      30.07R
CALDWELL       CLEAR     57  41  54 SW6       30.08R
MOUNTAIN HOME  CLEAR     56  42  60 W7        30.07S
$$

IDZ016-017-201100-
SOUTHCENTRAL IDAHO


CITY           SKY/WX    TMP DP  RH WIND       PRES   REMARKS
BURLEY         CLEAR     51  42  71 CALM      30.15R
JEROME         CLEAR     53  44  71 SE6       30.14R
TWIN FALLS     CLEAR     57  42  57 S13       30.14R
$$

IDZ019>023-201100-
SOUTHEAST IDAHO


CITY           SKY/WX    TMP DP  RH WIND       PRES   REMARKS
IDAHO FALLS    CLEAR     47  42  83 NW5       30.19R
POCATELLO      CLEAR     50  45  83 CALM      30.18R
REXBURG        CLEAR     47  41  80 NE6       30.20R
$$

IDZ006-010-011-018-031-032-201100-
CENTRAL IDAHO MOUNTAINS


CITY           SKY/WX    TMP DP  RH WIND       PRES   REMARKS
MCCALL         CLEAR     51  42  71 N6        30.19S
HAILEY         CLEAR     52  41  66 NW8       30.21R
STANLEY          N/A     35  31  85 CALM      30.30R
SALMON         PTCLDY    46  39  76 CALM      30.21R
CHALLIS        CLEAR     50  38  63 CALM      30.22R
$$

IDZ002-004-006-007-026-201100-
NORTHERN IDAHO


CITY           SKY/WX    TMP DP  RH WIND       PRES   REMARKS
LEWISTON       CLEAR     60  46  59 E3        30.10S
LOWELL           N/A     52  49  89 N3        30.18S
COEUR D`ALENE  PTCLDY    54  48  82 SE5       30.13S
MULLAN PASS    CLEAR     49  43  80 CALM      30.27R
$$



USA.gov is the U.S. government's official web portal to all federal, state and local government web resources and services.